Date String (YYYY-MM-DD hh:mm:ss) UTC,Instrument flags,absolute air pressure of the measurement (hPa),sample flow rate (lpm),inlet stack bypass flow (lpm),air temperature of the measurement (°C),ambient temperature measured by the external sensor (°C),aerosol sample conditioner tube jacket temperature (°C),OPC LED temperature (°C),internal box temperature (°C),relative humidity of the measurement (%),span deviation,mass concentration of particles derived from Lorenz-Mie calculation of OPC scattering (μg/m³),mass concentration of particles derived from Lorenz-Mie calculation of OPC scattering (μg/m³),mass concentration of particles derived from Lorenz-Mie calculation of OPC scattering (μg/m³)
DateTimeUTC,F1_M11,P_M11,Q1_M11,Q2_M11,T1_M11,T2_M11,T3_M11,T4_M11,T5_M11,U1_M11,ZSPAN_M11,X0_M11,X2_M11,X1_M11
2023-07-27 08:00:00,SystemResetWarning,0833.9,5.00,000.00,029.5,028.4,000.0,037.9,031.1,28.5,0000.0,0006.03,0003.25,0002.57
2023-07-27 08:01:00,SystemResetWarning,0833.8,5.00,000.00,029.5,028.4,000.0,037.9,031.2,28.4,0000.0,0005.95,0003.23,0002.57
2023-07-27 08:02:00,SystemResetWarning,0833.8,5.00,000.00,029.6,027.7,000.0,037.9,031.2,28.7,0000.0,0005.72,0003.21,0002.59
2023-07-27 08:03:00,SystemResetWarning,0833.8,5.00,000.00,029.5,025.9,000.0,037.8,030.9,28.3,0000.0,0005.69,0003.21,0002.58
2023-07-27 08:04:00,SystemResetWarning,0833.7,5.00,000.00,029.4,025.3,000.0,037.7,030.6,28.1,0000.0,0005.70,0003.21,0002.57
2023-07-27 08:05:00,SystemResetWarning,0833.7,5.01,000.00,029.3,025.4,000.0,037.7,030.4,27.9,0000.0,0005.57,0003.18,0002.56
2023-07-27 08:06:00,SystemResetWarning,0833.7,5.00,000.00,029.2,025.7,000.0,037.7,030.4,27.9,0000.0,0005.33,0003.19,0002.53
2023-07-27 08:07:00,SystemResetWarning,0833.7,4.99,000.00,029.2,026.1,000.0,037.7,030.5,27.7,0000.0,0005.23,0003.20,0002.51
2023-07-27 08:08:00,SystemResetWarning,0833.7,4.99,000.00,029.2,026.5,000.0,037.7,030.6,27.6,0000.0,0004.93,0003.17,0002.48
2023-07-27 08:09:00,SystemResetWarning,0833.7,5.01,000.00,029.2,026.8,000.0,037.7,030.7,27.6,0000.0,0004.67,0003.12,0002.45
2023-07-27 08:10:00,SystemResetWarning,0833.7,5.01,000.00,029.2,027.1,000.0,037.7,030.7,27.2,0000.0,0004.44,0003.06,0002.42
2023-07-27 08:11:00,SystemResetWarning,0833.7,5.00,000.00,029.2,027.3,000.0,037.7,030.8,26.8,0000.0,0005.81,0003.08,0002.40
2023-07-27 08:12:00,SystemResetWarning,0833.6,5.00,000.00,029.2,027.5,000.0,037.7,030.8,26.6,0000.0,0006.37,0003.04,0002.36
2023-07-27 08:13:00,SystemResetWarning,0833.6,5.00,000.00,029.3,027.7,000.0,037.7,030.9,26.6,0000.0,0006.46,0003.02,0002.31
2023-07-27 08:14:00,SystemResetWarning,0833.6,5.00,000.00,029.3,027.8,000.0,037.8,030.9,26.6,0000.0,0006.48,0003.00,0002.29
2023-07-27 08:15:00,SystemResetWarning,0833.6,5.00,000.00,029.3,028.0,000.0,037.8,030.9,26.3,0000.0,0006.54,0002.99,0002.28
2023-07-27 08:16:00,SystemResetWarning,0833.6,5.01,000.00,029.3,028.0,000.0,037.8,031.0,26.3,0000.0,0006.45,0002.98,0002.27
2023-07-27 08:17:00,SystemResetWarning,0833.7,5.00,000.00,029.4,028.1,000.0,037.8,031.0,26.3,0000.0,0006.41,0002.99,0002.24
2023-07-27 08:18:00,SystemResetWarning,0833.6,5.00,000.00,029.4,028.2,000.0,037.8,031.0,26.2,0000.0,0006.42,0002.94,0002.21
2023-07-27 08:19:00,SystemResetWarning,0833.6,5.00,000.00,029.4,028.3,000.0,037.8,031.1,26.3,0000.0,0006.43,0002.92,0002.21
2023-07-27 08:20:00,SystemResetWarning,0833.6,5.00,000.00,029.5,028.3,000.0,037.8,031.1,26.5,0000.0,0006.46,0002.91,0002.20
2023-07-27 08:21:00,SystemResetWarning,0833.6,4.99,000.00,029.5,028.4,000.0,037.9,031.1,26.4,0000.0,0006.62,0002.92,0002.18
2023-07-27 08:22:00,SystemResetWarning,0833.6,4.99,000.00,029.5,028.4,000.0,037.9,031.2,26.9,0000.0,0006.44,0002.89,0002.16
2023-07-27 08:23:00,SystemResetWarning,0833.6,5.00,000.00,029.6,028.4,000.0,037.9,031.2,26.7,0000.0,0004.77,0002.84,0002.15
2023-07-27 08:24:00,SystemResetWarning,0833.5,4.99,000.00,029.6,027.5,000.0,037.9,031.1,26.2,0000.0,0004.52,0002.81,0002.14
2023-07-27 08:25:00,SystemResetWarning,0833.5,5.01,000.00,029.5,025.7,000.0,037.7,030.8,26.0,0000.0,0004.74,0002.79,0002.14
2023-07-27 08:26:00,SystemResetWarning,0833.4,5.00,000.00,029.4,025.2,000.0,037.7,030.6,26.4,0000.0,0004.88,0002.79,0002.10
2023-07-27 08:27:00,SystemResetWarning,0833.5,5.00,000.00,029.3,025.4,000.0,037.7,030.4,26.5,0000.0,0004.69,0002.71,0002.06
2023-07-27 08:28:00,SystemResetWarning,0833.4,5.02,000.00,029.2,025.8,000.0,037.7,030.4,26.3,0000.0,0004.70,0002.65,0002.04
2023-07-27 08:29:00,SystemResetWarning,0833.4,5.00,000.00,029.2,026.2,000.0,037.7,030.5,27.2,0000.0,0004.62,0002.64,0002.02
2023-07-27 08:30:00,SystemResetWarning,0833.4,5.00,000.00,029.2,026.5,000.0,037.7,030.6,26.9,0000.0,0004.44,0002.57,0001.99
2023-07-27 08:31:00,SystemResetWarning,0833.4,5.01,000.00,029.2,026.9,000.0,037.7,030.7,26.8,0000.0,0004.31,0002.51,0001.97
2023-07-27 08:32:00,SystemResetWarning,0833.4,4.99,000.00,029.2,027.1,000.0,037.7,030.7,26.6,0000.0,0004.14,0002.47,0001.95
2023-07-27 08:33:00,SystemResetWarning,0833.4,5.00,000.00,029.2,027.3,000.0,037.7,030.8,25.7,0000.0,0004.32,0002.47,0001.93
2023-07-27 08:34:00,SystemResetWarning,0833.4,5.00,000.00,029.2,027.5,000.0,037.7,030.8,25.1,0000.0,0005.39,0002.45,0001.90
2023-07-27 08:35:00,SystemResetWarning,0833.4,5.00,000.00,029.3,027.7,000.0,037.7,030.9,26.3,0000.0,0005.53,0002.44,0001.88
2023-07-27 08:36:00,SystemResetWarning,0833.4,5.00,000.00,029.3,027.8,000.0,037.7,030.9,26.5,0000.0,0005.22,0002.41,0001.87
2023-07-27 08:37:00,SystemResetWarning,0833.4,5.00,000.00,029.3,027.9,000.0,037.7,030.9,25.9,0000.0,0005.00,0002.38,0001.87
2023-07-27 08:38:00,SystemResetWarning,0833.4,5.01,000.00,029.3,028.0,000.0,037.8,031.0,25.9,0000.0,0005.23,0002.47,0001.88
2023-07-27 08:39:00,SystemResetWarning,0833.4,4.99,000.00,029.4,028.1,000.0,037.8,031.0,27.1,0000.0,0005.17,0002.48,0001.88
2023-07-27 08:40:00,SystemResetWarning,0833.4,5.00,000.00,029.4,028.2,000.0,037.8,031.0,26.4,0000.0,0005.15,0002.48,0001.88
2023-07-27 08:41:00,SystemResetWarning,0833.4,4.99,000.00,029.4,028.2,000.0,037.8,031.1,26.2,0000.0,0005.31,0002.52,0001.88
2023-07-27 08:42:00,SystemResetWarning,0833.3,5.00,000.00,029.5,028.3,000.0,037.8,031.1,25.9,0000.0,0005.33,0002.53,0001.88
2023-07-27 08:43:00,SystemResetWarning,0833.3,5.01,000.00,029.5,028.3,000.0,037.9,031.1,25.9,0000.0,0005.38,0002.51,0001.87
2023-07-27 08:44:00,SystemResetWarning,0833.3,5.01,000.00,029.5,028.4,000.0,037.9,031.2,24.4,0000.0,0005.37,0002.50,0001.86
2023-07-27 08:45:00,SystemResetWarning,0833.3,5.00,000.00,029.6,028.4,000.0,037.9,031.2,24.6,0000.0,0004.08,0002.49,0001.86
2023-07-27 08:46:00,SystemResetWarning,0833.3,4.99,000.00,029.6,028.4,000.0,037.9,031.2,24.4,0000.0,0004.10,0002.50,0001.86
2023-07-27 08:47:00,SystemResetWarning,0833.3,5.00,000.00,029.6,028.5,000.0,038.0,031.2,25.1,0000.0,0004.27,0002.56,0001.84
2023-07-27 08:48:00,SystemResetWarning,0833.3,5.00,000.00,029.6,028.5,000.0,038.0,031.3,23.3,0000.0,0004.47,0002.62,0001.84
2023-07-27 08:49:00,SystemResetWarning,0833.2,4.99,000.00,029.7,027.6,000.0,037.9,031.2,23.9,0000.0,0004.36,0002.59,0001.84
2023-07-27 08:50:00,SystemResetWarning,0833.3,5.00,000.00,029.6,025.7,000.0,037.8,031.0,24.5,0000.0,0004.16,0002.50,0001.81
2023-07-27 08:51:00,SystemResetWarning,0833.3,5.00,000.00,029.5,025.2,000.0,037.7,030.7,24.7,0000.0,0004.16,0002.46,0001.78
2023-07-27 08:52:00,SystemResetWarning,0833.2,5.01,000.00,029.4,025.3,000.0,037.8,030.5,26.5,0000.0,0004.18,0002.43,0001.77
2023-07-27 08:53:00,SystemResetWarning,0833.3,5.01,000.00,029.3,025.7,000.0,037.8,030.5,25.6,0000.0,0004.33,0002.44,0001.76
2023-07-27 08:54:00,SystemResetWarning,0833.3,5.00,000.00,029.3,026.2,000.0,037.8,030.6,25.5,0000.0,0004.26,0002.41,0001.74
2023-07-27 08:55:00,SystemResetWarning,0833.2,4.99,000.00,029.3,026.5,000.0,037.8,030.7,25.7,0000.0,0004.26,0002.40,0001.73
2023-07-27 08:56:00,SystemResetWarning,0833.2,5.00,000.00,029.3,026.9,000.0,037.8,030.7,25.3,0000.0,0004.52,0002.43,0001.73
2023-07-27 08:57:00,SystemResetWarning,0833.3,5.01,000.00,029.3,027.1,000.0,037.8,030.8,24.1,0000.0,0004.44,0002.44,0001.73
2023-07-27 08:58:00,SystemResetWarning,0833.3,4.99,000.00,029.3,027.4,000.0,037.8,030.8,24.5,0000.0,0004.49,0002.42,0001.73
2023-07-27 08:59:00,SystemResetWarning,0833.2,5.00,000.00,029.3,027.6,000.0,037.8,030.8,26.4,0000.0,0004.17,0002.33,0001.71
